GORIZONT 19 (20263 NORAD) Tracking and Keplerian Element Data

This shows tracking and keplerian element data for the satellite.

Feedback or suggestion? Click here.




ElementValue
Catalog20263
NameGORIZONT 19
Epoch Orbit12948
Epoch Day33.91280889
Epoch Year2025
RAAN336.9037
Inclination12.626
Eccentricity0.0005344
Argument of Perigee258.7826
Mean Anonmoly282.9117
Mean Motion1.00344833
Decay Rate4.4E-07
L11 20263U 89081A 25033.91280889 .00000044 00000+0 00000+0 0 9993
L22 20263 12.6260 336.9037 0005344 258.7826 282.9117 1.00344833129487



Live tracking and technical data element details for GORIZONT 19 (NORAD 20263). GORIZONT 19 can be tracked NOW for your location showing map with azimuth and elevation plus other details from your city location.







IsCatalogInMostPopularTable: catalog: 20263, numindb: 319
Update: records affected: 1



GetName: 20263 GORIZONT 19

Hit Count: updated at: Thu, 22 May 2025 04:22:49 GMT